Fes-Sais, Morocco

4:58 PM WET on June 25, 2017 (GMT +0000)
Fes-Sais

Weather History for GMFF - March, 2013

Change the Weather History Date:

Saturday, March 16, 2013

  Actual Average Record
Temperature  
Mean Temperature 60 °F -  
Max Temperature 76 °F 68 °F 76 °F (2013)
Min Temperature 44 °F 44 °F 34 °F (2014)
Degree Days  
Heating Degree Days 5    
Growing Degree Days 10 (Base 50)    
Moisture  
Dew Point 49 °F    
Average Humidity 64    
Maximum Humidity 82    
Minimum Humidity 40    
Precipitation  
Precipitation 0.00 in 0.12 in - ()
Sea Level Pressure  
Sea Level Pressure 29.89 in    
Wind  
Wind Speed 5 mph ()    
Max Wind Speed 17 mph    
Max Gust Speed 81 mph    
Visibility 6.1 miles    
Events      
Averages and records for this station are not official NWS values.
T = Trace of Precipitation, MM = Missing Value Source: Averaged Metar Reports

Daily Weather History Graph

Daily Weather History Graph

Search for Another Location

Airport or City:

Trip Planner

Search our weather history database for the weather conditions in past years. The results will help you decide how hot, cold, wet, or windy it might be!

Date:

Astronomy

Mar. 16, 2013 Rise Set
Actual Time 6:28 AM WET 6:28 PM WET
Civil Twilight 6:04 AM WET 6:53 PM WET
Nautical Twilight 5:35 AM WET 7:22 PM WET
Astronomical Twilight 5:05 AM WET 7:51 PM WET
Moon 9:02 AM WET (3/16) 11:10 PM WET (3/16)
Length of Visible Light 12h 49m
Length of Day
11h 59m
Waxing Crescent, 21% of the Moon is Illuminated
Mar 16
Waxing Crescent
Mar 19
First Quarter
Mar 27
Full
Apr 3
Last Quarter
Apr 10
New

Hourly Weather History & Observations

Time (WET) Temp. Dew Point Humidity Pressure Visibility Wind Dir Wind Speed Gust Speed Precip Events Conditions
12:00 AM 51 °F 39 °F 53% 29.97 in 6 mi SSE 9.2 mph - -   Clear
12:00 AM 50.0 °F 39.2 °F 66% 29.95 in - SSE 8.1 mph - N/A   Clear
1:00 AM 46.4 °F 41.0 °F 81% 29.95 in 6.2 mi North - - N/A   Scattered Clouds
2:00 AM 48.2 °F 39.2 °F 71% 29.95 in - SSE 5.8 mph - N/A   Clear
3:00 AM 48 °F 39 °F 61% 29.96 in 6 mi SE 4.6 mph - -   Clear
3:00 AM 48.2 °F 39.2 °F 71% 29.92 in 6.2 mi SE 4.6 mph - N/A   Mostly Cloudy
4:00 AM 48.2 °F 41.0 °F 76% 29.89 in - SE 4.6 mph - N/A   Clear
5:00 AM 48.2 °F 39.2 °F 71% 29.89 in - Variable 2.3 mph - N/A   Clear
6:00 AM 50 °F 41 °F 62% 29.93 in 6 mi SE 4.6 mph - -   Clear
6:00 AM 50.0 °F 41.0 °F 71% 29.89 in 6.2 mi SE 4.6 mph - N/A   Scattered Clouds
7:00 AM 53.6 °F 41.0 °F 62% 29.92 in - Calm Calm - N/A   Clear
8:00 AM 62.6 °F 46.4 °F 55% 29.92 in - Variable 4.6 mph - N/A   Clear
9:00 AM 69.8 °F 50.0 °F 49% 29.92 in - East 4.6 mph - N/A   Clear
10:00 AM 68.0 °F 55.4 °F 64% 29.95 in - Variable 3.5 mph - N/A   Clear
11:00 AM 71.6 °F 51.8 °F 50% 29.95 in - Variable 4.6 mph - N/A   Clear
12:00 PM 74 °F 54 °F 40% 29.86 in 6 mi North 3.5 mph - -   Scattered Clouds
12:00 PM 71.6 °F 55.4 °F 57% 29.92 in - North 4.6 mph - N/A   Clear
1:00 PM 73.4 °F 55.4 °F 53% 29.92 in - NNW 3.5 mph - N/A   Clear
2:00 PM 73.4 °F 55.4 °F 53% 29.89 in - Variable 3.5 mph - N/A   Clear
3:00 PM 73 °F 56 °F 45% 29.83 in 6 mi North 3.5 mph - -   Scattered Clouds
3:00 PM 71.6 °F 57.2 °F 60% 29.86 in 6.2 mi NNE 5.8 mph - N/A   Mostly Cloudy
4:00 PM 69.8 °F 55.4 °F 60% 29.86 in 6.2 mi ENE 4.6 mph - N/A   Mostly Cloudy
5:00 PM 71.6 °F 59.0 °F 64% 29.86 in 6.2 mi East 3.5 mph - N/A   Mostly Cloudy
6:00 PM 71 °F 58 °F 55% 29.80 in 6 mi East 3.5 mph - -   Scattered Clouds
6:00 PM 69.8 °F 60.8 °F 73% 29.86 in 6.2 mi South 17.3 mph 80.6 mph N/A   Partly Cloudy
7:30 PM 62.6 °F 57.2 °F 82% 29.86 in 6.2 mi SSE 5.8 mph - N/A   Mostly Cloudy
8:00 PM 62.6 °F 55.4 °F 77% 29.83 in - SSE 9.2 mph - N/A   Clear
9:00 PM 60 °F 53 °F 71% 29.83 in 6 mi SSE 8.1 mph - -   Partly Cloudy
9:00 PM 60.8 °F 53.6 °F 77% 29.83 in - SSE 8.1 mph - N/A   Clear
10:00 PM 59.0 °F 50.0 °F 72% 29.83 in - South 6.9 mph - N/A   Clear
11:00 PM 59.0 °F 50.0 °F 72% 29.80 in - West 4.6 mph - N/A   Clear